This is the latest recevied weather packets stored in our database for station/object KI4FRU. If no packets are shown the sender has not sent any weather packets the latest 10 day(s).
| Time | Temp. | Humidity | Pressure | Rain* | Wind** | Luminosity | Snow |
|---|---|---|---|---|---|---|---|
| 1777580329 | 25.56° C | 47% | 1048.5 hPa | 0 mm | - | 409 W/m² | - |
| 1777580026 | 25° C | 43% | 1048.8 hPa | 0 mm | - | 527 W/m² | - |
| 1777579722 | 24.44° C | 47% | 1048.6 hPa | 0 mm | - | 472 W/m² | - |
| 1777579420 | 25.56° C | 47% | 1048.8 hPa | 0 mm | - | 397 W/m² | - |
| 1777579116 | 26.67° C | 44% | 1048.5 hPa | 0 mm | - | 471 W/m² | - |
| 1777578809 | 26.67° C | 44% | 1048.5 hPa | 0 mm | - | 471 W/m² | - |
| 1777578505 | 27.78° C | 44% | 1048.6 hPa | 0 mm | - | 438 W/m² | - |
| 1777578200 | 26.11° C | 49% | 1048.7 hPa | 0 mm | - | 598 W/m² | - |
| 1777577896 | 26.67° C | 44% | 1048.8 hPa | 0 mm | - | 604 W/m² | - |
| 1777577591 | 26.11° C | 46% | 1048.8 hPa | 0 mm | - | 607 W/m² | - |
| 1777577289 | 25.56° C | 46% | 1048.8 hPa | 0 mm | - | 627 W/m² | - |
| 1777576984 | 26.11° C | 47% | 1048.8 hPa | 0 mm | - | 631 W/m² | - |
| 1777576681 | 25.56° C | 49% | 1049 hPa | 0 mm | - | 633 W/m² | - |
| 1777576381 | 25.56° C | 51% | 1048.9 hPa | 0 mm | - | 606 W/m² | - |
| 1777576077 | 26.67° C | 47% | 1049 hPa | 0 mm | - | 654 W/m² | - |
| 1777575773 | 26.67° C | 47% | 1048.9 hPa | 0 mm | - | 675 W/m² | - |
| 1777575470 | 26.67° C | 48% | 1048.9 hPa | 0 mm | - | 723 W/m² | - |
| 1777575165 | 26.11° C | 46% | 1049 hPa | 0 mm | - | 489 W/m² | - |
| 1777574861 | 26.11° C | 49% | 1048.8 hPa | 0 mm | - | 725 W/m² | - |
| 1777574559 | 25.56° C | 46% | 1049.2 hPa | 0 mm | - | 724 W/m² | - |
| 1777574255 | 26.11° C | 48% | 1049.2 hPa | 0 mm | - | 650 W/m² | - |
| 1777573950 | 25.56° C | 52% | 1049.2 hPa | 0 mm | - | 747 W/m² | - |
| 1777573645 | 25° C | 50% | 1049 hPa | 0 mm | - | 424 W/m² | - |
| 1777573342 | 25° C | 51% | 1049.2 hPa | 0 mm | - | 819 W/m² | - |
| 1777573037 | 25° C | 53% | 1049.1 hPa | 0 mm | - | 209 W/m² | - |
* Rain latest hour (hover to see other rain measurements)
** Current wind speed in m/s (hover to see current wind gust speed)